Weather History for Hays, KS

Change the Weather History Date:

Monday, April 22, 2013

  Actual Average Record
Temperature  
Mean Temperature 44 °F -  
Max Temperature 57 °F 63 °F 84 °F (2006)
Min Temperature 30 °F 40 °F 30 °F (2013)
Degree Days  
Heating Degree Days 22    
Moisture  
Dew Point 41 °F    
Average Humidity 79    
Maximum Humidity 88    
Minimum Humidity 67    
Precipitation  
Precipitation 0.01 in - - ()
Sea Level Pressure  
Sea Level Pressure 29.99 in    
Wind  
Wind Speed 14 mph (ESE)    
Max Wind Speed 36 mph    
Max Gust Speed 43 mph    
Visibility 10 miles    
Events Thunderstorm    
Averages and records for this station are not official NWS values.
T = Trace of Precipitation, MM = Missing Value Source: NWS Daily Summary

Daily Weather History Graph

Daily Weather History Graph

Search for Another Location

Airport:

Trip Planner

Search our weather history database for the weather conditions in past years. The results will help you decide how hot, cold, wet, or windy it might be!

Date:

Astronomy

Apr. 22, 2013 Rise Set
Actual Time 6:50 AM CDT 8:21 PM CDT
Civil Twilight 6:22 AM CDT 8:49 PM CDT
Nautical Twilight 5:48 AM CDT 9:23 PM CDT
Astronomical Twilight 5:13 AM CDT 9:58 PM CDT
Moon 5:13 PM CDT (4/22) 4:44 AM CDT (4/22)
Length of Visible Light 14h 26m
Length of Day
13h 30m
Waxing Gibbous, 88% of the Moon is Illuminated
Apr 22
Waxing Gibbous
Apr 25
Full
May 2
Last Quarter
May 9
New
May 17
First Quarter

Hourly Weather History & Observations

Time (CDT) Temp. Windchill Dew Point Humidity Pressure Visibility Wind Dir Wind Speed Gust Speed Precip Events Conditions
12:15 AM 53.6 °F - 42.8 °F 67% 30.01 in 10.0 mi South 11.5 mph - N/A   Clear
12:35 AM 53.6 °F - 42.8 °F 67% 30.00 in 10.0 mi South 12.7 mph - N/A   Clear
12:55 AM 53.6 °F - 44.6 °F 72% 30.00 in 10.0 mi South 11.5 mph - N/A   Clear
1:15 AM 53.6 °F - 44.6 °F 72% 30.01 in 10.0 mi South 12.7 mph - N/A   Clear
1:35 AM 53.6 °F - 44.6 °F 72% 30.00 in 10.0 mi South 10.4 mph - N/A   Scattered Clouds
1:55 AM 53.6 °F - 44.6 °F 72% 30.00 in 10.0 mi South 8.1 mph - N/A   Mostly Cloudy
2:15 AM 53.6 °F - 44.6 °F 72% 30.01 in 10.0 mi South 5.8 mph - N/A   Scattered Clouds
2:35 AM 53.6 °F - 44.6 °F 72% 30.00 in 10.0 mi South 8.1 mph - N/A   Overcast
2:55 AM 53.6 °F - 44.6 °F 72% 30.00 in 10.0 mi South 5.8 mph - N/A   Overcast
3:15 AM 55.4 °F - 44.6 °F 67% 29.98 in 10.0 mi SSW 19.6 mph 29.9 mph N/A   Mostly Cloudy
3:35 AM 55.4 °F - 46.4 °F 72% 29.97 in 10.0 mi SSW 23.0 mph 27.6 mph N/A   Overcast
3:55 AM 53.6 °F - 46.4 °F 77% 29.98 in 10.0 mi South 13.8 mph 20.7 mph N/A   Overcast
4:15 AM 53.6 °F - 46.4 °F 77% 29.98 in 10.0 mi SSW 15.0 mph - N/A   Overcast
4:35 AM 53.6 °F - 46.4 °F 77% 29.97 in 10.0 mi South 13.8 mph - N/A   Overcast
4:55 AM 53.6 °F - 46.4 °F 77% 29.99 in 10.0 mi SSW 11.5 mph - N/A   Overcast
5:15 AM 53.6 °F - 46.4 °F 77% 30.00 in 10.0 mi SSW 6.9 mph - N/A   Overcast
5:35 AM 51.8 °F - 46.4 °F 82% 30.01 in 10.0 mi WSW 5.8 mph - N/A   Overcast
5:55 AM 51.8 °F - 46.4 °F 82% 29.97 in 7.0 mi ESE 10.4 mph - N/A Thunderstorm Thunderstorm
6:15 AM 51.8 °F - 46.4 °F 82% 29.96 in 10.0 mi SE 11.5 mph - N/A Thunderstorm Mostly Cloudy
6:35 AM 51.8 °F - 46.4 °F 82% 29.96 in 10.0 mi SE 13.8 mph - N/A   Partly Cloudy
6:55 AM 50.0 °F - 46.4 °F 87% 29.95 in 10.0 mi ESE 9.2 mph - N/A   Scattered Clouds
7:15 AM 50.0 °F - 46.4 °F 87% 29.94 in 10.0 mi ESE 10.4 mph - N/A   Scattered Clouds
7:35 AM 51.8 °F - 46.4 °F 82% 29.95 in 10.0 mi SE 8.1 mph - N/A   Mostly Cloudy
7:55 AM 50.0 °F - 46.4 °F 87% 29.96 in 10.0 mi ESE 3.5 mph - N/A   Overcast
8:15 AM 50.0 °F - 46.4 °F 87% 29.95 in 10.0 mi East 8.1 mph - N/A   Overcast
8:35 AM 51.8 °F - 46.4 °F 82% 29.94 in 10.0 mi ESE 8.1 mph - N/A   Mostly Cloudy
8:55 AM 51.8 °F - 46.4 °F 82% 29.93 in 10.0 mi ESE 10.4 mph - N/A   Mostly Cloudy
9:15 AM 51.8 °F - 46.4 °F 82% 29.91 in 9.0 mi SE 9.2 mph - N/A   Overcast
9:35 AM 51.8 °F - 48.2 °F 88% 29.91 in 5.0 mi SSE 13.8 mph - N/A   Overcast
9:55 AM 51.8 °F - 46.4 °F 82% 29.89 in 7.0 mi SE 15.0 mph - N/A Thunderstorm Overcast
10:15 AM 51.8 °F - 48.2 °F 88% 29.88 in 10.0 mi SSE 15.0 mph 19.6 mph N/A   Overcast
10:35 AM 51.8 °F - 48.2 °F 88% 29.88 in 10.0 mi SE 11.5 mph - N/A   Overcast
10:55 AM 51.8 °F - 48.2 °F 88% 29.89 in 10.0 mi SSE 9.2 mph - N/A   Overcast
11:15 AM 53.6 °F - 48.2 °F 82% 29.89 in 10.0 mi SSE 11.5 mph - N/A   Overcast
11:35 AM 53.6 °F - 48.2 °F 82% 29.89 in 10.0 mi SSE 8.1 mph - N/A   Overcast
11:55 AM 53.6 °F - 48.2 °F 82% 29.89 in 10.0 mi South 4.6 mph - N/A   Overcast
12:15 PM 55.4 °F - 48.2 °F 77% 29.88 in 10.0 mi SSW 9.2 mph - N/A   Overcast
12:35 PM 55.4 °F - 48.2 °F 77% 29.89 in 10.0 mi SSW 5.8 mph - N/A   Overcast
12:55 PM 55.4 °F - 48.2 °F 77% 29.89 in 10.0 mi South 3.5 mph - N/A   Overcast
1:15 PM 55.4 °F - 48.2 °F 77% 29.88 in 9.0 mi SSE 5.8 mph - N/A   Overcast
1:35 PM 57.2 °F - 48.2 °F 72% 29.88 in 10.0 mi SSE 4.6 mph - N/A   Overcast
1:55 PM 57.2 °F - 48.2 °F 72% 29.88 in 10.0 mi SE 5.8 mph - N/A   Overcast
2:15 PM 57.2 °F - 48.2 °F 72% 29.88 in 10.0 mi SE 4.6 mph - N/A   Overcast
2:35 PM 55.4 °F - 50.0 °F 82% 29.89 in 10.0 mi East 8.1 mph - N/A   Overcast
2:55 PM 53.6 °F - 48.2 °F 82% 29.89 in 10.0 mi East 6.9 mph - N/A   Overcast
3:15 PM 53.6 °F - 48.2 °F 82% 29.90 in 10.0 mi ENE 5.8 mph - N/A   Overcast
3:35 PM 53.6 °F - 48.2 °F 82% 29.91 in 9.0 mi NNE 8.1 mph - N/A   Overcast
3:55 PM 53.6 °F - 50.0 °F 88% 29.93 in 8.0 mi North 29.9 mph 36.8 mph 0.01 in   Overcast
4:15 PM 42.8 °F 31.9 °F 39.2 °F 87% 29.95 in 10.0 mi North 32.2 mph 38.0 mph N/A   Overcast
4:35 PM 41.0 °F 29.0 °F 35.6 °F 81% 29.96 in 10.0 mi North 35.7 mph 41.4 mph N/A   Overcast
4:55 PM 39.2 °F 27.6 °F 35.6 °F 87% 29.98 in 10.0 mi North 28.8 mph 36.8 mph N/A   Overcast
5:15 PM 39.2 °F 27.2 °F 33.8 °F 81% 30.00 in 10.0 mi North 31.1 mph 38.0 mph N/A   Overcast
5:35 PM 37.4 °F 24.8 °F 33.8 °F 87% 30.01 in 10.0 mi North 31.1 mph 35.7 mph N/A   Overcast
5:55 PM 35.6 °F 22.5 °F 30.2 °F 81% 30.02 in 10.0 mi North 29.9 mph 35.7 mph N/A   Overcast
6:15 PM 35.6 °F 22.3 °F 30.2 °F 81% 30.04 in 10.0 mi North 31.1 mph 36.8 mph N/A   Overcast
6:35 PM 35.6 °F 23.2 °F 30.2 °F 81% 30.07 in 10.0 mi North 26.5 mph 36.8 mph N/A   Overcast
6:55 PM 35.6 °F 23.7 °F 30.2 °F 81% 30.08 in 10.0 mi North 24.2 mph 33.4 mph N/A   Overcast
7:15 PM 35.6 °F 24.0 °F 28.4 °F 75% 30.07 in 10.0 mi North 23.0 mph 35.7 mph N/A   Overcast
7:35 PM 35.6 °F 22.5 °F 28.4 °F 75% 30.09 in 10.0 mi North 29.9 mph 36.8 mph N/A   Overcast
7:55 PM 33.8 °F 19.6 °F 28.4 °F 81% 30.08 in 10.0 mi North 32.2 mph 39.1 mph N/A   Overcast
8:15 PM 33.8 °F 20.3 °F 26.6 °F 75% 30.09 in 10.0 mi North 28.8 mph 39.1 mph N/A   Overcast
8:35 PM 33.8 °F 20.8 °F 26.6 °F 75% 30.10 in 10.0 mi North 26.5 mph 39.1 mph N/A   Overcast
8:55 PM 33.8 °F 21.0 °F 26.6 °F 75% 30.12 in 10.0 mi North 25.3 mph 34.5 mph N/A   Overcast
9:15 PM 33.8 °F 21.3 °F 26.6 °F 75% 30.14 in 10.0 mi North 24.2 mph 31.1 mph N/A   Overcast
9:35 PM 33.8 °F 20.5 °F 26.6 °F 75% 30.11 in 10.0 mi North 27.6 mph 33.4 mph N/A   Overcast
9:55 PM 33.8 °F 19.9 °F 26.6 °F 75% 30.14 in 10.0 mi North 31.1 mph 39.1 mph N/A   Overcast
10:15 PM 32.0 °F 18.4 °F 26.6 °F 80% 30.18 in 10.0 mi North 26.5 mph 34.5 mph N/A   Overcast
10:35 PM 32.0 °F 17.4 °F 26.6 °F 80% 30.15 in 10.0 mi North 31.1 mph 38.0 mph N/A   Overcast
10:55 PM 32.0 °F 16.7 °F 26.6 °F 80% 30.12 in 10.0 mi North 34.5 mph 42.6 mph N/A   Overcast
11:15 PM 30.2 °F 16.2 °F 26.6 °F 86% 30.14 in 10.0 mi North 25.3 mph 38.0 mph N/A   Overcast
11:35 PM 30.2 °F 15.4 °F 26.6 °F 86% 30.16 in 10.0 mi North 28.8 mph 35.7 mph N/A   Overcast
11:55 PM 30.2 °F 15.9 °F 26.6 °F 86% 30.16 in 10.0 mi North 26.5 mph 36.8 mph N/A   Overcast